Hourly Data Report for July 20, 2021

DRYDEN REGIONAL
ONTARIO
Current Station Operator: NAVCAN

49°49'39.000" N
92°44'39.000" W
412.70 m
6032125
71527
YHD

Download Data

Hourly Data (July 2021)
Hourly Data Report for July 20, 2021
TIME
LST
Temp Definition
°C
Dew Point Definition
°C
Rel Hum Definition
%
Precip. Amount Definition
mm

Wind Dir Definition
10's deg

Wind Spd Definition
km/h
Visibility Definition
km
Stn Press Definition
kPa
Hmdx Definition


Wind Chill Definition


Weather Definition


00:00 13.9 12.3 90 0.0 5 18 16.1 97.39     LegendNANA
01:00 13.8 12.2 90 0.0 7 15 16.1 97.32     LegendNANA
02:00 13.7 12.0 89 0.0 7 17 16.1 97.31     LegendNANA
03:00 13.6 12.0 90 0.0 7 9 16.1 97.36     LegendNANA
04:00 13.4 12.1 92 0.0 10 8 16.1 97.40     LegendNANA
05:00 13.0 11.9 93 0.0 7 11 14.5 97.42     LegendNANA
06:00 13.0 11.5 91 0.0 9 11 16.1 97.46     LegendNANA
07:00 13.3 11.0 86 0.0 7 13 16.1 97.51     LegendNANA
08:00 14.4 10.1 75 0.0 15 13 16.1 97.55     LegendNANA
09:00 16.1 9.2 63 0.0 9 13 16.1 97.49     LegendNANA
10:00 17.8 10.3 61 0.0 8 11 16.1 97.50     LegendNANA
11:00 18.7 9.8 56 0.0 6 11 16.1 97.47     LegendNANA
12:00 19.6 9.1 50 0.0 4 11 16.1 97.42     LegendNANA
13:00 20.2 8.9 48 0.0 6 11 16.1 97.38     LegendNANA
14:00 20.5 9.5 49 0.0 6 11 16.1 97.35     LegendNANA
15:00 21.1 9.2 46 0.0 6 9 16.1 97.33     LegendNANA
16:00 21.3 8.5 43 0.0 5 11 16.1 97.28     LegendNANA
17:00 21.5 8.8 44 0.0 7 8 16.1 97.26     LegendNANA
18:00 21.0 9.1 46 0.0 9 5 16.1 97.26     LegendNANA
19:00 19.9 9.0 49 0.0 11 8 16.1 97.21     LegendNANA
20:00 18.1 9.5 57 0.0 9 5 16.1 97.20     LegendNANA
21:00 17.4 10.8 65 0.0 5 5 16.1 97.25     LegendNANA
22:00 16.5 11.7 73 0.0 6 4 16.1 97.26     LegendNANA
23:00 14.8 12.5 86 0.0 5 5 16.1 97.22     LegendNANA

Notes on Data Quality.

Legend

  • E = Estimated
  • M = Missing
  • NA = Not Available*
  • [empty] = Indicates an unobserved value
Date modified: